Terug naar catalogus

COSMOS 2270

ActiefMilitairPO
NORAD 23001·PAYLOAD·🇷🇺 Russia

Gelanceerd Feb 12, 1994 vanaf Plesetsk Cosmodrome

Loading…

Volgende Passages (komende 24 uur)

TLE

VersSource: Space-Track

Epoch: Sep 14, 2026, 11:37 UTC

1 23001U 94011C   26257.48433435  .00000001  00000-0 -51942-4 0  9994
2 23001  82.5681 256.7292 0006994 346.6522 168.0149 12.62937362501924

Volg COSMOS 2270 in realtime met AllMySat

Download on the App Store